OSCAR 24

Last updated on Fri Jun 19 2026 20:04:44 GMT+0000 (Coordinated Universal Time)

1 15936U 85066B 26170.56457773 .00000075 00000+0 12261-3 0 9995 2 15936 90.1732 95.5167 0166776 277.7114 257.3057 13.35968394991642
UTC large
Height (km)
Speed (km/s)
/
Latitude / Longitude
Inclination (degrees)
Orbital Period (minutes)
Azimuth
Elevation
Range (km)
Doppler Factor

Next 0 passes for location: London (51.5072 / 0.1276)

Sorry there are no passes over London.
OSCAR 24